Content
SEND FEEDBACK

Daily
Averages
Monthly
Summary
United States of America

AGAT, GUAM


Home > North America > United States > Guam
Elevation: 364 feet     Latitude: 13 33N     Longitude: 144 50E

WEATHER
 
SELECT A DAY
Number of Records: 209,044;   Date Range: 1/1/95 - 7/29/14
 
SHARE

PRINT THIS DATA

[ ← Previous Day ]
WEATHER ALMANAC - APRIL 18, 2013
[ Next Day → ]
[ °C ]   °F
Weather ElementAverageHighLow
Temperature84.4 °F90 °F (12:54 pm)78.1 °F (5:54 am)
Dewpoint73.3 °F75.9 °F (11:54 pm)71.1 °F (11:54 am)
Humidity70 %85 % (11:54 pm)54 % (12:54 pm)
Barometer29.86 in29.91 in (9:01 am)29.81 in (1:54 pm)
Wind Speed7.7 mph13.8 mph (12:54 pm)
Wind Gust20.7 mph (1:54 pm)
Weather ElementAverage
Visibility10 mi
Wind DirectionENE (80 °)

Weather ElementTotal
Precipitation0.08 in
Cooling Degree Days19.1 (Base 65)
Growing Degree Days34.1 (Base 50)
Averaged from 29 records on April 18, 2013
WEATHER CONDITIONS BREAKOUT
WIND DIRECTION BREAKOUT
WEATHER BY HOUR - APRIL 18, 2013
[ °C ]   °F
Local TimeTemperatureDewpointHumidityBarometerVisibilityWind DirectionWind SpeedGust SpeedPrecipitationEventsConditions
1:54 AM80.1 °F73.0 °F79 %29.85 in10.0 miSE (130°)3.5 mphPartly Cloudy
2:54 AM80.1 °F73.9 °F81 %29.84 in10.0 miENE (60°)3.5 mphScattered Clouds
3:54 AM80.1 °F73.0 °F79 %29.83 in10.0 miEast (80°)3.5 mphScattered Clouds
4:54 AM79.0 °F73.0 °F82 %29.84 in10.0 miEast (100°)3.5 mphClear
5:54 AM78.1 °F72.0 °F81 %29.85 in10.0 miCalmPartly Cloudy
6:39 AM78.8 °F73.4 °F83 %29.88 in10.0 miNE (50°)3.5 mphMostly Cloudy
6:54 AM81.0 °F73.9 °F79 %29.86 in10.0 miNE (50°)4.6 mphMostly Cloudy
7:44 AM82.4 °F75.2 °F79 %29.90 in10.0 miNNE (30°)5.8 mphScattered Clouds
7:51 AM84.2 °F75.2 °F74 %29.90 in10.0 miNE (40°)6.9 mphMostly Cloudy
7:54 AM84.0 °F75.0 °F74 %29.88 in10.0 miNE (40°)5.8 mphMostly Cloudy
8:54 AM86.0 °F73.9 °F67 %29.89 in10.0 miEast (100°)8.1 mphMostly Cloudy
9:01 AM87.8 °F73.4 °F62 %29.91 in10.0 miEast (80°)9.2 mphScattered Clouds
9:28 AM87.8 °F73.4 °F62 %29.91 in10.0 miEast (100°)10.4 mphMostly Cloudy
9:36 AM87.8 °F71.6 °F58 %29.91 in10.0 miEast (100°)10.4 mphScattered Clouds
9:54 AM87.1 °F72.0 °F61 %29.90 in10.0 miEast (80°)11.5 mphScattered Clouds
10:54 AM87.1 °F73.0 °F63 %29.88 in10.0 miESE (110°)10.4 mphScattered Clouds
11:54 AM89.1 °F71.1 °F55 %29.87 in10.0 miESE (110°)12.7 mphPartly Cloudy
12:54 PM90.0 °F71.1 °F54 %29.83 in10.0 miEast (90°)13.8 mphPartly Cloudy
1:54 PM90.0 °F71.1 °F54 %29.81 in10.0 miEast (100°)12.7 mph20.7 mphPartly Cloudy
2:54 PM89.1 °F72.0 °F57 %29.81 in10.0 miEast (80°)13.8 mphPartly Cloudy
3:54 PM88.0 °F73.9 °F63 %29.81 in10.0 miEast (100°)12.7 mph18.4 mphScattered Clouds
4:54 PM88.0 °F73.9 °F63 %29.81 in10.0 miEast (100°)11.5 mphScattered Clouds
5:54 PM84.9 °F73.0 °F67 %29.82 in10.0 miEast (80°)12.7 mphPartly Cloudy
6:54 PM84.0 °F73.9 °F72 %29.84 in10.0 miEast (100°)6.9 mphClear
7:54 PM82.9 °F73.9 °F74 %29.87 in10.0 miEast (100°)4.6 mphPartly Cloudy
8:54 PM82.0 °F73.0 °F74 %29.89 in10.0 miEast (80°)3.5 mphClear
9:54 PM82.9 °F73.9 °F74 %29.89 in10.0 miEast (80°)5.8 mphScattered Clouds
10:54 PM82.9 °F73.9 °F74 %29.89 in10.0 miENE (60°)4.6 mphPartly Cloudy
11:54 PM81.0 °F75.9 °F85 %29.88 in10.0 miEast (90°)6.9 mph0.08 inScattered Clouds
Hourly data recorded from PGUM, located miles away from Agat, Guam







STORIES FROM OUR PARTNERS